| time (UTC) | temp F | wind direction | speed MPH | gust MPH | rain 1hr in | rain 24hr in | rain mn in | humidity % | barometer mb |
| 20260503204535 | 82 | 67 | 3.0 | 9.0 | 0.00 | 0.00 | 0.00 | 42 | 1009.4 |
| 20260503203032 | 81 | 71 | 2.0 | 8.0 | 0.00 | 0.00 | 0.00 | 45 | 1009.6 |
| 20260503201529 | 80 | 281 | 1.0 | 8.0 | 0.00 | 0.00 | 0.00 | 49 | 1009.7 |
| 20260503200026 | 79 | 86 | 3.0 | 9.0 | 0.00 | 0.00 | 0.00 | 52 | 1009.9 |
| 20260503194523 | 79 | 59 | 4.0 | 10.0 | 0.00 | 0.00 | 0.00 | 49 | 1010.0 |
| 20260503193019 | 78 | 76 | 3.0 | 9.0 | 0.00 | 0.00 | 0.00 | 44 | 1010.2 |
| 20260503191515 | 77 | 101 | 5.0 | 9.0 | 0.00 | 0.00 | 0.00 | 54 | 1010.3 |
| 20260503190032 | 76 | 70 | 6.0 | 11.0 | 0.00 | 0.00 | 0.00 | 49 | 1010.3 |
| 20260503184509 | 76 | 100 | 3.0 | 8.0 | 0.00 | 0.00 | 0.00 | 56 | 1010.4 |
| 20260503183008 | 74 | 69 | 3.0 | 8.0 | 0.00 | 0.00 | 0.00 | 55 | 1010.6 |
| 20260503181600 | 74 | 96 | 2.0 | 8.0 | 0.00 | 0.00 | 0.00 | 57 | 1010.7 |
| 20260503180100 | 73 | 115 | 2.0 | 8.0 | 0.00 | 0.00 | 0.00 | 58 | 1010.8 |
| 20260503174552 | 72 | 64 | 2.0 | 7.0 | 0.00 | 0.00 | 0.00 | 59 | 1010.9 |
| 20260503173109 | 71 | 313 | 5.0 | 12.0 | 0.00 | 0.00 | 0.00 | 59 | 1011.0 |
| 20260503171549 | 71 | 79 | 6.0 | 10.0 | 0.00 | 0.00 | 0.00 | 55 | 1011.2 |
| 20260503081534 | 61 | 319 | 0.0 | 2.0 | 0.00 | 0.01 | 0.00 | 74 | 1012.0 |
| 20260503071517 | 61 | 290 | 0.0 | 0.0 | 0.00 | 0.01 | 0.00 | 76 | 1012.0 |
| 20260503054509 | 61 | 279 | 1.0 | 5.0 | 0.00 | 0.01 | 0.01 | 81 | 1012.0 |
| 20260503053011 | 61 | 112 | 0.0 | 4.0 | 0.00 | 0.01 | 0.01 | 79 | 1012.0 |
| 20260503051508 | 62 | 294 | 2.0 | 7.0 | 0.00 | 0.01 | 0.01 | 79 | 1012.0 |
| 20260503050011 | 61 | 275 | 1.0 | 4.0 | 0.00 | 0.01 | 0.01 | 80 | 1012.0 |
| 20260503044509 | 60 | 269 | 3.0 | 6.0 | 0.00 | 0.01 | 0.01 | 80 | 1011.9 |
| 20260503043007 | 59 | 315 | 1.0 | 3.0 | 0.00 | 0.01 | 0.01 | 81 | 1012.2 |
| 20260503041506 | 59 | 315 | 0.0 | 2.0 | 0.00 | 0.01 | 0.01 | 81 | 1012.3 |
| 20260503040005 | 59 | 315 | 1.0 | 4.0 | 0.00 | 0.01 | 0.01 | 81 | 1012.1 |
| 20260503034505 | 60 | 301 | 2.0 | 8.0 | 0.00 | 0.01 | 0.01 | 81 | 1011.9 |
| 20260503033006 | 60 | 347 | 5.0 | 9.0 | 0.00 | 0.01 | 0.01 | 81 | 1011.7 |
| 20260503031504 | 61 | 321 | 4.0 | 8.0 | 0.00 | 0.01 | 0.01 | 81 | 1011.8 |
| 20260503030004 | 61 | 193 | 1.0 | 5.0 | 0.00 | 0.01 | 0.01 | 79 | 1011.9 |
| 20260503024504 | 62 | 175 | 2.0 | 8.0 | 0.00 | 0.01 | 0.01 | 78 | 1011.9 |
| 20260503023003 | 62 | 195 | 5.0 | 11.0 | 0.00 | 0.01 | 0.01 | 78 | 1011.8 |
| 20260503021502 | 64 | 167 | 4.0 | 13.0 | 0.00 | 0.01 | 0.01 | 76 | 1011.9 |
| 20260503020002 | 66 | 188 | 0.0 | 2.0 | 0.00 | 0.01 | 0.01 | 78 | 1011.5 |
| 20260503014501 | 66 | 154 | 0.0 | 0.0 | 0.00 | 0.01 | 0.01 | 79 | 1011.0 |
| 20260503013101 | 66 | 298 | 0.0 | 1.0 | 0.00 | 0.01 | 0.01 | 78 | 1011.2 |
| 20260503011633 | 66 | 154 | 1.0 | 3.0 | 0.00 | 0.01 | 0.01 | 76 | 1011.2 |
| 20260503010100 | 66 | 79 | 0.0 | 2.0 | 0.00 | 0.01 | 0.01 | 75 | 1011.1 |
| 20260503010001 | 66 | 79 | 0.0 | 2.0 | 0.00 | 0.01 | 0.01 | 75 | 1011.0 |
| 20260503004605 | 66 | 79 | 1.0 | 2.0 | 0.00 | 0.01 | 0.01 | 74 | 1011.0 |
| 20260503003059 | 66 | 79 | 2.0 | 3.0 | 0.00 | 0.01 | 0.01 | 74 | 1011.0 |
| 20260503001558 | 67 | 42 | 0.0 | 2.0 | 0.00 | 0.01 | 0.01 | 74 | 1011.1 |
| 20260503000056 | 67 | 351 | 1.0 | 3.0 | 0.00 | 0.01 | 0.01 | 70 | 1011.1 |
| 20260502234556 | 66 | 271 | 1.0 | 3.0 | 0.00 | 0.01 | 0.01 | 70 | 1011.2 |
| 20260502233055 | 66 | 78 | 2.0 | 6.0 | 0.00 | 0.01 | 0.01 | 73 | 1011.5 |
| 20260502231552 | 66 | 89 | 0.0 | 6.0 | 0.00 | 0.01 | 0.01 | 72 | 1011.7 |
| 20260502230050 | 66 | 46 | 3.0 | 6.0 | 0.00 | 0.01 | 0.01 | 72 | 1011.8 |
| 20260502224602 | 65 | 294 | 3.0 | 8.0 | 0.00 | 0.01 | 0.01 | 71 | 1012.0 |
| 20260502223045 | 64 | 34 | 2.0 | 6.0 | 0.00 | 0.01 | 0.01 | 78 | 1012.3 |
| 20260502221542 | 62 | 82 | 1.0 | 5.0 | 0.00 | 0.01 | 0.01 | 81 | 1012.5 |
| 20260502220042 | 62 | 64 | 2.0 | 7.0 | 0.00 | 0.01 | 0.01 | 77 | 1012.7 |
| 20260502214540 | 63 | 66 | 3.0 | 8.0 | 0.00 | 0.01 | 0.01 | 74 | 1012.9 |
| 20260502213037 | 62 | 71 | 5.0 | 9.0 | 0.00 | 0.01 | 0.01 | 79 | 1013.1 |
| 20260502211542 | 61 | 42 | 3.0 | 9.0 | 0.00 | 0.01 | 0.01 | 76 | 1013.2 |
| 20260502210038 | 61 | 93 | 3.0 | 9.0 | 0.00 | 0.01 | 0.01 | 77 | 1013.3 |